WetterOnline ( http://www.wetteronline.de )

Wetter aktuell Bollendorf

Aktuelles Wetter: Deuselbach (483m)

6-stündlich | Neueste Meldungen
Ortszeit Temperatur Wetter
Sa, 21.04. 8:00 14.4° C wolkenlos
Sa, 21.04. 2:00 15.6° C leicht bewölkt
Fr, 20.04. 20:00 22.8° C leicht bewölkt
Fr, 20.04. 14:00 24.2° C wolkig
Fr, 20.04. 8:00 15.3° C wolkig
Fr, 20.04. 2:00 17.4° C wolkenlos
Do, 19.04. 20:00 21.8° C wolkig
Do, 19.04. 14:00 23.2° C wolkenlos
Ortszeit Temperatur Wetter
Sa, 21.04. 9:30 17.3° C leicht bewölkt
Sa, 21.04. 9:20 17.3° C leicht bewölkt
Sa, 21.04. 9:10 18.2° C wolkenlos
Sa, 21.04. 9:00 17.3° C wolkenlos
Sa, 21.04. 8:50 17.3° C wolkenlos
Sa, 21.04. 8:40 16.6° C wolkenlos
Sa, 21.04. 8:30 16.8° C leicht bewölkt
Sa, 21.04. 8:00 14.4° C wolkenlos
Sa, 21.04. 7:30 13.6° C fast wolkenlos
Sa, 21.04. 7:00 14.2° C wolkig
Sa, 21.04. 6:30 14.8° C bedeckt
Ortszeit Relative Feuchte Sichtweite
Sa, 21.04. 8:00 75% 9 km
Sa, 21.04. 2:00 55% 45 km
Fr, 20.04. 20:00 35% 50 km
Fr, 20.04. 14:00 25% 30 km
Fr, 20.04. 8:00 50% 45 km
Fr, 20.04. 2:00 43% 50 km
Do, 19.04. 20:00 39% 40 km
Do, 19.04. 14:00 32% 26 km
Ortszeit Relative Feuchte Sichtweite
Sa, 21.04. 9:30 69% 9 km
Sa, 21.04. 9:20 69% -
Sa, 21.04. 9:10 61% -
Sa, 21.04. 9:00 68% 9 km
Sa, 21.04. 8:50 68% -
Sa, 21.04. 8:40 69% -
Sa, 21.04. 8:30 67% 9 km
Sa, 21.04. 8:00 75% 9 km
Sa, 21.04. 7:30 78% 10 km
Sa, 21.04. 7:00 76% 7 km
Sa, 21.04. 6:30 74% 8 km
Ortszeit Niederschlagsmenge Niederschlagsart
Sa, 21.04. 8:00 0.0 l/m2 in 12 Std. -
Sa, 21.04. 2:00 0.0 l/m2 in 6 Std. -
Fr, 20.04. 20:00 0.0 l/m2 in 12 Std. -
Fr, 20.04. 14:00 0.0 l/m2 in 6 Std. -
Fr, 20.04. 8:00 0.0 l/m2 in 12 Std. -
Fr, 20.04. 2:00 0.0 l/m2 in 6 Std. -
Do, 19.04. 20:00 0.0 l/m2 in 12 Std. -
Do, 19.04. 14:00 0.0 l/m2 in 6 Std. -
Ortszeit Niederschlagsmenge Niederschlagsart
Sa, 21.04. 9:30 0.0 l/m2 in 1 Std. -
Sa, 21.04. 9:20 keine Meldung -
Sa, 21.04. 9:10 keine Meldung -
Sa, 21.04. 9:00 0.0 l/m2 in 1 Std. -
Sa, 21.04. 8:50 keine Meldung -
Sa, 21.04. 8:40 keine Meldung -
Sa, 21.04. 8:30 0.0 l/m2 in 1 Std. -
Sa, 21.04. 8:00 0.0 l/m2 in 1 Std. -
Sa, 21.04. 7:30 0.0 l/m2 in 1 Std. -
Sa, 21.04. 7:00 0.0 l/m2 in 1 Std. -
Sa, 21.04. 6:30 0.0 l/m2 in 1 Std. -
Ortszeit Stärke Spitze Richtung
km/h Bft. km/h Grad Sektor
Sa, 21.04. 8:00 4 1 18 160° S
Sa, 21.04. 2:00 7 2 18 140° SO
Fr, 20.04. 20:00 4 1 25 120° SO
Fr, 20.04. 14:00 11 2 22 20° N
Fr, 20.04. 8:00 6 1 24 100° O
Fr, 20.04. 2:00 15 3 24 130° SO
Do, 19.04. 20:00 18 3 43 100° O
Do, 19.04. 14:00 26 4 52 150° SO
Ortszeit Stärke Spitze Richtung
km/h Bft. km/h Grad Sektor
Sa, 21.04. 9:30 7 2 7 350° N
Sa, 21.04. 9:20 7 2 - 350° N
Sa, 21.04. 9:10 4 1 - 50° NO
Sa, 21.04. 9:00 4 1 7 340° N
Sa, 21.04. 8:50 4 1 - 340° N
Sa, 21.04. 8:40 4 1 - 350° N
Sa, 21.04. 8:30 0 0 4 - -
Sa, 21.04. 8:00 4 1 4 160° S
Sa, 21.04. 7:30 0 0 4 - -
Sa, 21.04. 7:00 0 0 4 - -
Sa, 21.04. 6:30 4 1 4 90° O
Ortszeit Untergrenze Bedeckung Gattung
total tief tief mittel hoch
Sa, 21.04. 8:00 2100 m 0/8 0/8 - - -
Sa, 21.04. 2:00 2400 m 2/8 1/8 - - -
Fr, 20.04. 20:00 9000 m 8/8 0/8 - - -
Fr, 20.04. 14:00 2700 m 8/8 3/8 - - -
Fr, 20.04. 8:00 3600 m 7/8 1/8 - - -
Fr, 20.04. 2:00 - 0/8 0/8 - - -
Do, 19.04. 20:00 - 8/8 - - - -
Do, 19.04. 14:00 - 0/8 0/8 - - -
Ortszeit Bedeckungsgrad in Achtel und Wolkenuntergrenze
Sa, 21.04. 9:30 2(2100m)
Sa, 21.04. 9:20 2(2100m)
Sa, 21.04. 9:10 keine Wolken
Sa, 21.04. 9:00 keine Wolken
Sa, 21.04. 8:50 keine Wolken
Sa, 21.04. 8:40 keine Wolken
Sa, 21.04. 8:30 2(2100m)
Sa, 21.04. 8:00 1(2100m)
Sa, 21.04. 7:30 1(2100m)
Sa, 21.04. 7:00 3(2100m)
Sa, 21.04. 6:30 9 9 9
Ortszeit Luftdruck NN (hPa) Tendenz (hPa in 3 Std.)
Sa, 21.04. 8:00 1021 + 0,3
Sa, 21.04. 2:00 1022 - 0,2
Fr, 20.04. 20:00 1020 - 0,9
Fr, 20.04. 14:00 1022 - 0,5
Fr, 20.04. 8:00 1024 - 0,1
Fr, 20.04. 2:00 1025 - 0,7
Do, 19.04. 20:00 1024 - 0,4
Do, 19.04. 14:00 1025 - 0,4
Ortszeit Luftdruck NN (hPa) Tendenz (hPa in 3 Std.)
Sa, 21.04. 9:30 1021 + 0,6
Sa, 21.04. 9:20 1021 keine Meldung
Sa, 21.04. 9:10 1021 keine Meldung
Sa, 21.04. 9:00 1021 + 0,6
Sa, 21.04. 8:50 1021 keine Meldung
Sa, 21.04. 8:40 1021 keine Meldung
Sa, 21.04. 8:30 1021 + 0,4
Sa, 21.04. 8:00 1021 + 0,3
Sa, 21.04. 7:30 1021 0,0
Sa, 21.04. 7:00 1021 - 0,4
Sa, 21.04. 6:30 1021 - 0,7
Ortszeit Schneehöhe (cm)
Sa, 21.04. 8:00 0
Sa, 21.04. 2:00 0
Fr, 20.04. 20:00 0
Fr, 20.04. 14:00 0
Fr, 20.04. 8:00 0
Fr, 20.04. 2:00 0
Do, 19.04. 20:00 0
Do, 19.04. 14:00 0
Ortszeit Schneehöhe (cm)
Sa, 21.04. 9:30 0
Sa, 21.04. 9:20 0
Sa, 21.04. 9:10 0
Sa, 21.04. 9:00 0
Sa, 21.04. 8:50 0
Sa, 21.04. 8:40 0
Sa, 21.04. 8:30 0
Sa, 21.04. 8:00 0
Sa, 21.04. 7:30 0
Sa, 21.04. 7:00 0
Sa, 21.04. 6:30 0
Link zu dieser Seite / Seite empfehlen

Das Wetter in ...